Theta_e
303 303 302 301 303 306 306 308 307 305 305 306 308 309 308 309 311 312 315 318 318 327 324 323 323 325 325 326 326 325 324 322 322 321 320 316 315 314 314 314 314 311 309 305
301 303 300 302 302 303 304 306 306 305 305 306 306 308 308 309 310 310 311 315 317 318 326 323 323 323 324 325 325 323 322 322 323 321 317 314 313 308 310 308 306 304 302 299
304 299 301 303 303 305 304 303 302 303 303 305 306 308 305 306 308 309 309 310 314 316 319 325 323 323 324 325 323 320 321 322 321 317 316 313 308 306 303 301 300 299 298 296
301 301 303 302 302 302 303 301 301 303 304 306 305 307 305 304 307 310 310 309 312 315 316 322 323 323 323 324 322 319 321 318 317 318 315 316 307 302 300 299 298 297 296 294
300 301 301 303 303 302 302 302 303 304 306 307 306 308 306 306 309 310 311 312 313 315 315 319 322 322 323 323 319 318 317 316 316 316 317 314 306 305 301 298 295 295 294 293
301 301 302 302 302 301 302 303 304 305 303 306 304 306 307 305 305 308 309 310 312 314 314 318 320 322 322 322 318 315 315 315 314 312 313 310 306 301 298 294 293 292 292 292
300 301 299 301 303 303 303 302 300 296 305 306 307 307 309 308 307 307 308 309 313 313 316 318 319 321 322 321 318 315 314 310 309 309 308 308 306 302 298 294 292 291 291 290
300 297 300 303 305 303 302 301 301 300 305 305 304 304 306 307 308 311 311 310 312 314 316 316 314 313 312 317 317 316 313 307 306 306 305 304 301 297 295 294 293 291 290 290
299 299 299 298 298 300 303 306 303 307 305 307 302 304 308 310 310 309 310 310 313 313 314 313 311 310 310 310 312 311 308 305 304 303 302 299 298 296 295 294 292 292 290 289
299 301 298 299 299 301 304 304 306 299 308 306 303 304 312 311 310 308 307 307 312 313 312 310 309 310 309 308 307 306 305 303 300 299 299 297 296 295 293 292 291 289 289 288
298 301 299 299 300 299 302 305 304 304 304 310 309 310 312 309 306 305 304 305 310 314 309 306 305 304 305 305 304 302 301 299 299 299 297 296 295 295 294 292 293 293 291 291
299 301 299 299 298 296 302 303 306 308 305 306 307 308 310 309 307 304 301 307 311 308 304 303 302 300 301 301 301 300 299 299 298 296 296 295 295 294 294 292 290 290 294 292
298 297 294 295 296 301 303 302 303 305 307 307 310 308 307 308 309 307 302 303 307 305 303 300 299 299 298 299 298 298 298 297 296 296 295 295 294 294 294 294 295 294 291 290
301 297 295 296 298 298 300 300 299 302 305 305 305 305 305 304 309 305 302 300 303 303 301 300 299 297 296 296 296 295 295 295 295 295 294 293 294 295 295 296 294 292 291 289
298 294 293 295 297 297 298 298 300 301 303 305 304 304 304 307 308 308 306 300 302 301 300 299 297 296 296 295 294 294 294 294 295 295 294 295 296 297 295 293 292 291 289 288
293 289 291 294 293 296 299 298 299 301 303 304 304 306 305 303 305 309 308 305 300 300 299 297 295 294 294 294 294 293 293 293 295 295 294 296 297 296 294 293 291 289 288 288
296 294 288 289 291 291 289 296 300 300 301 303 304 304 301 302 304 308 308 303 305 300 298 296 295 293 292 294 294 293 293 294 294 294 296 297 296 294 293 291 290 288 288 287
295 294 290 289 287 289 296 294 295 298 298 299 297 295 298 301 302 305 303 300 304 302 298 296 295 293 292 293 293 293 294 294 294 293 294 294 293 291 290 289 288 288 287 287
294 294 290 286 280 290 296 300 300 300 301 299 294 294 298 299 299 306 301 297 298 301 299 298 296 294 293 293 293 293 293 293 292 292 292 292 290 290 289 288 288 287 287 286
294 294 294 281 289 289 294 301 296 297 299 299 293 293 297 298 307 303 297 296 296 296 297 297 296 295 294 293 293 293 291 291 290 291 291 290 290 289 289 289 288 287 287 287
287 293 293 287 291 290 292 293 296 299 304 297 293 292 296 298 297 296 295 296 294 293 293 295 295 295 294 293 293 292 291 290 290 290 290 290 290 290 289 288 288 287 287 287
285 287 286 288 290 294 293 297 299 298 297 295 292 292 293 294 294 293 294 294 293 292 291 291 291 292 293 293 293 292 291 291 290 290 290 290 289 289 289 288 288 287 287 287
285 288 288 291 294 294 294 296 297 296 295 294 292 292 291 291 295 293 293 293 292 291 290 291 290 289 290 292 293 292 294 295 294 291 290 289 289 289 288 289 288 287 287 286
284 285 288 290 290 290 289 288 289 291 291 291 290 290 291 291 291 293 292 292 291 291 290 289 289 288 288 290 291 294 294 294 291 290 289 290 289 289 289 289 288 287 287 287
286 285 286 286 288 288 288 287 288 290 289 289 290 290 290 290 291 292 290 290 290 290 289 289 289 289 289 289 289 290 291 291 290 290 290 289 289 289 289 288 288 288 289 289
285 286 287 288 287 288 288 288 288 290 289 289 290 291 290 290 290 291 289 288 289 290 289 288 289 290 289 290 290 290 291 291 291 290 289 289 289 289 288 288 288 288 289 288
Wind_Speed
4 2 6 7 7 8 9 13 17 14 14 17 22 28 21 17 11 17 11 14 9 14 17 28 26 29 34 35 38 39 41 43 43 40 36 32 31 27 25 23 23 22 21 20
4 6 4 3 6 8 8 11 19 17 12 12 19 28 20 16 19 19 20 16 16 13 13 15 27 30 34 38 40 41 44 46 44 44 33 28 31 26 25 23 22 22 21 20
3 5 8 4 8 6 6 8 17 18 16 15 20 27 23 20 23 22 25 23 20 19 17 18 21 32 35 37 39 42 48 48 44 39 38 31 30 27 24 23 23 21 20 19
6 4 3 6 8 5 11 12 15 13 10 11 6 19 22 19 21 20 23 23 20 21 16 17 21 29 37 37 40 43 48 44 44 46 42 43 30 24 22 30 27 25 21 18
7 7 6 8 8 5 11 2 10 15 15 13 18 9 14 8 13 21 18 20 21 22 20 19 21 32 39 39 38 40 45 44 45 47 46 42 30 25 32 30 27 25 23 21
9 3 4 6 6 7 13 10 15 15 7 9 27 12 15 15 18 19 20 20 22 20 18 18 26 32 36 37 38 38 43 44 44 44 43 38 38 35 35 34 30 28 26 23
5 4 4 4 5 2 2 7 5 5 2 7 2 3 9 16 12 17 21 19 15 17 14 15 18 15 32 37 39 39 36 34 39 38 37 38 38 38 39 35 33 34 29 25
4 9 2 3 2 7 11 6 2 5 6 17 14 7 9 6 9 10 13 20 11 11 13 13 14 11 11 28 38 39 40 34 37 38 36 35 34 35 37 37 31 31 31 27
4 7 4 9 10 3 3 4 6 7 12 11 4 8 7 9 17 20 19 19 12 13 14 15 12 14 16 14 32 37 38 35 34 36 37 34 33 34 33 33 32 28 28 26
4 9 5 5 3 7 6 4 5 4 5 8 6 6 3 14 22 25 22 17 12 10 7 6 8 12 20 21 14 32 38 40 38 35 35 34 34 37 36 32 31 27 25 24
2 6 7 7 2 3 4 4 3 4 3 5 8 6 2 9 14 21 24 18 16 11 9 8 6 10 15 24 24 25 33 37 35 40 38 38 36 38 36 30 29 26 23 20
1 4 5 10 15 7 5 5 3 4 6 8 11 8 4 4 12 15 17 17 6 9 8 9 10 12 17 19 26 23 31 35 35 38 38 39 41 39 36 30 28 24 20 17
2 3 5 10 5 2 2 5 11 13 5 9 9 7 15 14 18 16 14 12 4 7 11 10 10 10 12 18 24 26 23 34 36 40 41 42 39 38 34 31 24 20 16 18
2 3 6 6 15 13 16 16 17 10 6 9 14 17 24 25 17 14 16 8 6 5 9 9 9 10 13 19 24 26 25 26 38 40 36 36 36 36 31 27 24 23 23 22
3 6 5 14 19 21 23 18 18 15 16 10 20 21 22 17 13 14 17 7 4 3 5 7 9 9 12 19 25 28 27 24 37 39 35 36 36 32 29 26 24 23 22 20
3 5 3 8 10 7 16 16 18 13 14 12 13 18 7 15 9 17 13 10 2 1 6 9 9 9 10 17 26 29 25 25 36 35 36 37 34 31 27 24 25 23 21 19
3 3 4 6 8 13 4 5 7 6 6 4 6 11 16 19 12 14 14 8 4 5 7 9 9 8 12 17 26 29 27 31 32 34 36 34 33 31 28 26 24 22 21 20
6 2 2 5 8 5 6 3 8 6 10 7 10 12 14 13 8 7 10 11 1 6 8 9 9 12 15 18 23 29 33 31 33 32 34 32 29 28 27 25 24 23 21 18
8 5 3 2 2 8 8 2 1 2 6 3 8 12 14 12 6 4 10 13 5 4 6 9 16 21 22 22 27 30 27 29 28 29 30 29 29 27 26 25 25 22 20 18
8 8 1 2 1 5 6 2 2 3 3 3 5 8 11 12 4 3 13 11 7 6 8 13 15 20 23 23 30 29 24 25 22 27 26 26 27 26 27 26 25 22 20 18
2 3 9 4 5 9 12 7 3 5 5 6 5 6 6 5 2 9 9 8 6 5 9 15 18 15 16 24 27 21 22 21 22 23 23 24 26 27 26 23 22 20 18 15
7 7 4 2 3 8 5 1 4 2 4 4 6 4 5 6 8 5 7 7 7 5 8 10 13 13 15 22 24 18 15 16 20 22 23 25 27 24 23 21 19 17 14 14
3 7 4 9 7 5 1 4 2 3 7 6 6 6 4 7 5 7 6 6 6 5 6 7 11 13 13 19 21 19 22 22 22 25 26 23 21 23 22 20 17 16 16 14
5 4 3 2 6 9 8 6 7 6 8 8 8 8 4 5 6 6 6 5 4 5 5 9 10 11 12 17 20 20 23 23 23 24 24 24 25 23 20 18 17 15 15 16
5 7 5 6 15 13 7 5 4 1 6 7 6 5 6 5 6 3 4 5 3 3 5 10 13 13 16 19 19 17 20 21 22 23 25 24 22 20 20 19 19 18 17 15
7 7 6 8 9 3 5 2 2 2 2 5 4 4 4 4 6 4 5 4 4 4 2 7 7 9 12 14 17 16 14 20 22 22 23 22 21 20 21 21 19 18 17 17
Wind_Direction
325 358 230 236 224 245 268 274 277 278 282 276 269 277 282 279 276 284 266 264 278 248 218 193 197 188 182 182 181 179 181 188 185 183 175 173 174 176 178 180 182 182 180 177
348 245 269 253 266 256 266 282 287 280 262 256 275 277 278 272 262 265 272 257 252 253 232 206 185 187 186 183 184 179 182 185 187 185 178 174 176 173 176 177 176 176 174 173
237 256 326 272 285 290 276 261 276 276 285 271 284 280 282 270 252 252 252 249 243 242 241 216 193 191 190 189 184 183 182 185 186 178 179 175 175 170 168 170 169 168 171 170
252 278 301 304 270 237 280 250 268 277 298 287 177 286 280 280 266 246 244 248 231 233 228 203 202 190 192 192 183 183 180 180 182 188 180 182 173 162 176 173 169 163 166 165
263 283 285 285 251 168 254 277 275 281 275 281 276 261 290 259 265 247 240 238 225 222 219 209 206 198 195 188 180 180 175 178 182 186 188 182 174 173 176 172 165 162 158 162
255 285 254 227 285 224 263 303 288 266 252 262 261 235 269 271 257 259 253 246 231 218 210 204 198 198 196 186 179 172 173 171 184 187 188 180 176 172 162 163 161 158 153 151
311 262 273 206 301 296 87 335 307 327 307 255 11 293 240 295 269 251 260 256 236 217 204 186 185 198 201 187 176 168 171 166 177 179 181 185 186 178 166 162 163 156 149 152
329 321 271 133 213 277 296 192 235 277 288 291 292 248 258 264 324 318 303 279 217 200 193 189 173 160 174 190 175 175 168 164 169 173 178 183 178 163 159 164 162 155 157 154
323 274 286 284 283 173 312 241 224 272 258 265 252 286 308 357 347 335 327 309 205 188 188 182 177 165 166 199 172 170 160 157 161 165 170 168 166 162 156 160 162 161 154 154
289 289 260 283 296 245 206 300 316 328 296 298 277 274 281 339 346 327 313 305 242 204 193 176 187 166 165 168 188 157 153 151 152 150 154 152 151 155 155 161 157 152 147 150
247 229 284 349 258 261 332 293 297 228 218 290 312 294 2 332 339 323 310 291 277 202 160 155 118 126 152 146 149 144 137 138 143 147 146 145 146 154 149 155 156 157 157 155
217 288 280 274 291 261 217 271 260 307 301 281 269 276 209 18 355 333 312 297 214 157 141 127 125 126 130 137 135 134 135 135 139 137 140 143 147 150 150 159 153 153 167 158
316 276 316 329 355 330 332 301 292 288 254 266 295 296 316 342 336 342 324 327 335 122 124 124 122 119 117 121 119 119 134 135 136 138 139 138 148 149 155 154 155 155 163 173
214 243 207 239 269 291 288 296 286 272 272 299 271 297 315 322 329 338 343 330 355 58 109 119 122 119 114 112 114 121 122 137 133 133 136 139 146 153 152 150 157 169 183 184
200 255 226 255 270 275 275 280 280 278 266 263 288 301 301 322 336 344 337 330 1 73 90 106 120 119 121 127 115 109 119 139 136 131 137 144 151 151 154 161 173 184 184 186
177 277 307 283 270 287 298 282 276 266 265 265 276 291 308 331 330 340 4 348 317 145 126 114 105 118 125 134 125 118 129 133 133 137 145 150 150 158 163 172 182 185 186 188
234 266 349 272 320 314 13 260 289 282 249 271 302 307 318 321 333 336 355 343 321 157 128 120 127 116 123 133 130 133 139 140 137 145 148 152 161 168 174 180 184 188 191 196
235 237 249 278 340 357 252 292 244 254 280 279 284 305 299 300 300 304 359 349 75 125 131 133 128 125 130 135 134 139 148 147 151 152 155 162 168 177 180 181 185 192 197 201
221 213 277 264 226 286 295 300 260 340 296 281 299 314 317 319 308 328 351 350 9 124 132 132 138 139 141 140 141 143 146 153 161 161 161 168 178 180 182 187 192 197 199 205
189 224 220 90 210 244 242 297 129 142 287 336 283 314 329 330 44 348 337 345 7 87 127 126 134 145 147 151 153 148 158 164 171 168 170 178 182 187 189 195 196 199 205 213
182 213 229 217 258 280 256 259 157 44 277 316 303 312 336 345 325 303 326 351 9 56 116 137 139 143 147 156 159 156 165 175 178 175 179 183 188 194 198 198 201 205 210 216
174 166 207 155 213 273 203 206 193 197 282 276 296 291 315 292 310 332 337 350 10 60 100 131 129 145 162 167 164 161 173 176 179 181 184 190 195 196 199 202 202 210 216 226
280 199 183 189 221 230 220 244 234 162 255 268 274 282 293 308 319 324 326 3 2 51 87 133 143 143 164 175 178 170 188 189 186 189 193 193 193 201 205 205 209 216 223 234
239 181 219 20 263 246 261 275 251 201 232 253 263 272 291 289 310 319 335 353 13 26 103 140 146 148 171 184 191 198 186 188 190 188 190 193 198 202 206 212 219 225 229 234
207 149 191 265 284 282 267 239 265 282 262 268 284 271 281 306 313 332 345 342 10 95 124 158 159 167 179 183 189 198 194 188 191 193 194 197 202 206 209 217 224 227 241 250
182 197 178 220 233 214 248 259 293 359 340 300 260 295 289 319 319 336 339 349 354 9 106 138 155 159 164 183 193 192 190 196 198 194 197 201 205 212 216 222 226 238 248 254